WMT991 LIMC-LATI

Flight info

Callsign WMT991
Flight time 1h 19m
Altitude 35000
Route VAKON DCT OTKEK DCT SOVUB DCT BAXON DCT SPL DCT GEBNI DCT MADOS DCT BALHA DCT TIBRI DCT BIGLO L187 LASTI L607 PETAK
Aircraft A321/M-SDE1E2E3FGIJ1J4RWXY/LB1

Departure

Time 2026-05-05 18:41
Airport Milan Malpensa International Airport (LIMC)

Arrival

Time 2026-05-05 20:00
Airport Tirana International Airport Mother Teresa (LATI)
Time Latitude Longitude Altitude Speed Heading
2026-05-05 18:10 45.64539 8.72405 716 ft 0 kts 349°
2026-05-05 18:28 45.64535 8.72406 715 ft 3 kts 349°
2026-05-05 18:29 45.64509 8.72415 717 ft 4 kts 343°
2026-05-05 18:29 45.64484 8.72428 719 ft 4 kts 333°
2026-05-05 18:29 45.64463 8.72448 719 ft 4 kts 304°
2026-05-05 18:29 45.64457 8.72471 719 ft 0 kts 259°
2026-05-05 18:32 45.64456 8.72468 719 ft 1 kts 259°
2026-05-05 18:32 45.64450 8.72451 720 ft 2 kts 237°
2026-05-05 18:32 45.64434 8.72435 716 ft 3 kts 202°
2026-05-05 18:33 45.64408 8.72433 716 ft 5 kts 176°
2026-05-05 18:33 45.64367 8.72442 716 ft 7 kts 171°
2026-05-05 18:33 45.64306 8.72459 719 ft 10 kts 169°
2026-05-05 18:33 45.64225 8.72481 718 ft 13 kts 169°
2026-05-05 18:34 45.64128 8.72508 718 ft 15 kts 169°
2026-05-05 18:34 45.64022 8.72544 718 ft 16 kts 168°
2026-05-05 18:34 45.63908 8.72570 717 ft 17 kts 169°
2026-05-05 18:34 45.63783 8.72605 718 ft 19 kts 168°
2026-05-05 18:35 45.63658 8.72639 717 ft 17 kts 169°
2026-05-05 18:35 45.63544 8.72671 719 ft 16 kts 169°
2026-05-05 18:35 45.63429 8.72704 717 ft 17 kts 168°
2026-05-05 18:35 45.63306 8.72738 717 ft 18 kts 169°
2026-05-05 18:36 45.63177 8.72773 720 ft 19 kts 169°
2026-05-05 18:36 45.63042 8.72811 717 ft 20 kts 169°
2026-05-05 18:36 45.62902 8.72850 716 ft 21 kts 169°
2026-05-05 18:36 45.62754 8.72892 717 ft 22 kts 169°
2026-05-05 18:37 45.62602 8.72934 717 ft 23 kts 169°
2026-05-05 18:37 45.62446 8.72977 718 ft 23 kts 169°
2026-05-05 18:37 45.62282 8.73023 716 ft 24 kts 169°
2026-05-05 18:37 45.62115 8.73070 718 ft 25 kts 169°
2026-05-05 18:38 45.61946 8.73116 719 ft 25 kts 169°
2026-05-05 18:38 45.61813 8.73153 716 ft 15 kts 169°
2026-05-05 18:38 45.61728 8.73241 718 ft 16 kts 127°
2026-05-05 18:38 45.61664 8.73377 717 ft 17 kts 123°
2026-05-05 18:39 45.61598 8.73523 719 ft 18 kts 115°
2026-05-05 18:39 45.61601 8.73696 717 ft 12 kts 75°
2026-05-05 18:39 45.61646 8.73734 716 ft 9 kts 348°
2026-05-05 18:39 45.61666 8.73727 720 ft 0 kts 348°
2026-05-05 18:40 45.61671 8.73726 720 ft 8 kts 348°
2026-05-05 18:40 45.61990 8.73638 716 ft 84 kts 349°
2026-05-05 18:40 45.62782 8.73421 718 ft 146 kts 349°
2026-05-05 18:40 45.63924 8.73103 917 ft 175 kts 349°
2026-05-05 18:41 45.65136 8.72954 1667 ft 176 kts 359°
2026-05-05 18:41 45.66364 8.72974 2425 ft 177 kts
2026-05-05 18:41 45.67653 8.73073 2762 ft 198 kts
2026-05-05 18:41 45.68883 8.73982 3140 ft 207 kts 52°
2026-05-05 18:42 45.69457 8.75861 3663 ft 209 kts 76°
2026-05-05 18:42 45.69872 8.77860 4216 ft 212 kts 74°
2026-05-05 18:42 45.70321 8.79886 4755 ft 215 kts 73°
2026-05-05 18:42 45.70773 8.81965 5262 ft 221 kts 77°
2026-05-05 18:43 45.71028 8.84210 5407 ft 242 kts 88°
2026-05-05 18:43 45.70981 8.86697 5808 ft 256 kts 100°
2026-05-05 18:43 45.70461 8.89218 6261 ft 270 kts 111°
2026-05-05 18:43 45.69814 8.91771 6941 ft 276 kts 111°
2026-05-05 18:44 45.69155 8.94364 7646 ft 280 kts 112°
2026-05-05 18:44 45.68483 8.96997 8371 ft 284 kts 112°
2026-05-05 18:44 45.67800 8.99663 9095 ft 288 kts 112°
2026-05-05 18:44 45.67104 9.02364 9826 ft 292 kts 112°
2026-05-05 18:45 45.66390 9.05126 10280 ft 305 kts 113°
2026-05-05 18:45 45.65616 9.08112 10433 ft 328 kts 113°
2026-05-05 18:45 45.64801 9.11259 10733 ft 344 kts 112°
2026-05-05 18:45 45.63966 9.14496 11308 ft 350 kts 112°
2026-05-05 18:46 45.63121 9.17776 11923 ft 355 kts 113°
2026-05-05 18:46 45.62272 9.21063 12532 ft 359 kts 113°
2026-05-05 18:46 45.61396 9.24434 13148 ft 364 kts 113°
2026-05-05 18:46 45.60510 9.27834 13770 ft 368 kts 113°
2026-05-05 18:47 45.59609 9.31284 14328 ft 372 kts 114°
2026-05-05 18:47 45.58701 9.34766 14906 ft 376 kts 114°
2026-05-05 18:47 45.57786 9.38276 15629 ft 379 kts 114°
2026-05-05 18:47 45.56860 9.41822 16199 ft 383 kts 114°
2026-05-05 18:48 45.56226 9.44237 16585 ft 386 kts 114°
2026-05-05 18:48 45.55281 9.47837 17163 ft 390 kts 115°
2026-05-05 18:48 45.54327 9.51467 17735 ft 393 kts 115°
2026-05-05 18:48 45.53360 9.55140 18307 ft 397 kts 115°
2026-05-05 18:49 45.52388 9.58838 18811 ft 400 kts 115°
2026-05-05 18:49 45.51407 9.62568 19312 ft 403 kts 115°
2026-05-05 18:49 45.50418 9.66323 19811 ft 406 kts 115°
2026-05-05 18:49 45.49418 9.70101 20307 ft 409 kts 116°
2026-05-05 18:50 45.48410 9.73904 20808 ft 412 kts 116°
2026-05-05 18:50 45.47392 9.77746 21220 ft 415 kts 116°
2026-05-05 18:50 45.46365 9.81606 21700 ft 419 kts 116°
2026-05-05 18:50 45.45337 9.85450 22182 ft 422 kts 116°
2026-05-05 18:51 45.44286 9.89370 22654 ft 425 kts 116°
2026-05-05 18:51 45.43226 9.93321 23108 ft 428 kts 116°
2026-05-05 18:51 45.42148 9.97346 23574 ft 432 kts 116°
2026-05-05 18:51 45.41077 10.01353 23951 ft 434 kts 116°
2026-05-05 18:52 45.39999 10.05384 24310 ft 437 kts 116°
2026-05-05 18:52 45.38908 10.09441 24682 ft 440 kts 117°
2026-05-05 18:52 45.37807 10.13522 25006 ft 444 kts 117°
2026-05-05 18:52 45.36710 10.17582 25312 ft 448 kts 117°
2026-05-05 18:53 45.35588 10.21731 25643 ft 451 kts 117°
2026-05-05 18:53 45.34458 10.25897 25985 ft 454 kts 117°
2026-05-05 18:53 45.33317 10.30097 26327 ft 457 kts 117°
2026-05-05 18:53 45.32169 10.34319 26661 ft 460 kts 117°
2026-05-05 18:54 45.31010 10.38567 26992 ft 463 kts 117°
2026-05-05 18:54 45.29845 10.42838 27319 ft 466 kts 117°
2026-05-05 18:54 45.28669 10.47142 27632 ft 468 kts 117°
2026-05-05 18:54 45.27486 10.51462 27917 ft 471 kts 117°
2026-05-05 18:55 45.26293 10.55809 28227 ft 474 kts 117°
2026-05-05 18:55 45.25092 10.60183 28538 ft 477 kts 117°
2026-05-05 18:55 45.23882 10.64579 28846 ft 480 kts 117°
2026-05-05 18:55 45.22664 10.68998 29139 ft 482 kts 117°
2026-05-05 18:56 45.21439 10.73438 29416 ft 485 kts 117°
2026-05-05 18:56 45.20205 10.77904 29702 ft 488 kts 117°
2026-05-05 18:56 45.18961 10.82394 29990 ft 490 kts 117°
2026-05-05 18:56 45.17707 10.86905 30196 ft 494 kts 117°
2026-05-05 18:57 45.16440 10.91449 30421 ft 497 kts 117°
2026-05-05 18:57 45.15167 10.96012 30671 ft 499 kts 117°
2026-05-05 18:57 45.13889 11.00591 30988 ft 500 kts 117°
2026-05-05 18:57 45.12616 11.05156 31342 ft 499 kts 117°
2026-05-05 18:58 45.11338 11.09724 31692 ft 499 kts 117°
2026-05-05 18:58 45.10054 11.14292 32042 ft 499 kts 118°
2026-05-05 18:58 45.08768 11.18849 32397 ft 499 kts 118°
2026-05-05 18:58 45.07482 11.23403 32728 ft 499 kts 118°
2026-05-05 18:59 45.06195 11.27954 33113 ft 499 kts 118°
2026-05-05 18:59 45.04923 11.32452 33445 ft 499 kts 118°
2026-05-05 18:59 45.03618 11.37059 33780 ft 499 kts 118°
2026-05-05 18:59 45.02326 11.41602 34091 ft 498 kts 119°
2026-05-05 19:00 45.01045 11.46087 34382 ft 498 kts 119°
2026-05-05 19:00 44.99749 11.50619 34693 ft 496 kts 118°
2026-05-05 19:00 44.98459 11.55134 34945 ft 496 kts 118°
2026-05-05 19:00 44.97171 11.59644 35010 ft 494 kts 118°
2026-05-05 19:01 44.94607 11.68610 35007 ft 491 kts 118°
2026-05-05 19:01 44.92035 11.77525 35010 ft 490 kts 118°
2026-05-05 19:02 44.89458 11.86424 35002 ft 490 kts 118°
2026-05-05 19:02 44.86874 11.95331 34992 ft 491 kts 117°
2026-05-05 19:03 44.84282 12.04225 34997 ft 491 kts 118°
2026-05-05 19:03 44.81676 12.13138 34997 ft 492 kts 118°
2026-05-05 19:04 44.79066 12.22045 35001 ft 492 kts 118°
2026-05-05 19:04 44.76447 12.30945 34982 ft 492 kts 117°
2026-05-05 19:05 44.73996 12.39242 34988 ft 493 kts 117°
2026-05-05 19:05 44.71356 12.48143 35006 ft 493 kts 117°
2026-05-05 19:06 44.68729 12.56983 34976 ft 493 kts 117°
2026-05-05 19:06 44.66081 12.65877 34976 ft 494 kts 117°
2026-05-05 19:07 44.63413 12.74757 34983 ft 495 kts 117°
2026-05-05 19:07 44.60741 12.83634 34987 ft 495 kts 117°
2026-05-05 19:08 44.58061 12.92530 34981 ft 495 kts 117°
2026-05-05 19:08 44.55373 13.01424 34983 ft 495 kts 117°
2026-05-05 19:09 44.52676 13.10308 34996 ft 496 kts 117°
2026-05-05 19:09 44.49968 13.19191 35007 ft 496 kts 117°
2026-05-05 19:10 44.47255 13.28072 34991 ft 496 kts 117°
2026-05-05 19:10 44.44524 13.36926 35010 ft 496 kts 117°
2026-05-05 19:11 44.41789 13.45786 35021 ft 496 kts 117°
2026-05-05 19:11 44.39070 13.54656 35022 ft 496 kts 116°
2026-05-05 19:12 44.36353 13.63523 35007 ft 496 kts 116°
2026-05-05 19:12 44.33619 13.72378 35017 ft 496 kts 116°
2026-05-05 19:13 44.30877 13.81222 35019 ft 496 kts 116°
2026-05-05 19:13 44.28124 13.90058 35023 ft 496 kts 116°
2026-05-05 19:14 44.25386 13.98826 35017 ft 496 kts 116°
2026-05-05 19:14 44.22622 14.07651 35024 ft 496 kts 116°
2026-05-05 19:15 44.19852 14.16466 35035 ft 496 kts 116°
2026-05-05 19:15 44.17075 14.25276 35045 ft 496 kts 116°
2026-05-05 19:16 44.14294 14.34075 35032 ft 496 kts 116°
2026-05-05 19:16 44.11501 14.42863 35042 ft 497 kts 116°
2026-05-05 19:17 44.08694 14.51646 35053 ft 497 kts 116°
2026-05-05 19:17 44.05891 14.60419 35042 ft 497 kts 116°
2026-05-05 19:18 44.03088 14.69196 35043 ft 496 kts 116°
2026-05-05 19:18 44.00274 14.77952 35043 ft 496 kts 117°
2026-05-05 19:19 43.97442 14.86690 35044 ft 496 kts 117°
2026-05-05 19:19 43.94608 14.95426 35043 ft 496 kts 116°
2026-05-05 19:20 43.91770 15.04167 35050 ft 497 kts 116°
2026-05-05 19:20 43.88927 15.12905 35057 ft 498 kts 116°
2026-05-05 19:21 43.86066 15.21643 35062 ft 498 kts 117°
2026-05-05 19:21 43.83202 15.30369 35055 ft 497 kts 116°
2026-05-05 19:22 43.80332 15.39080 35060 ft 497 kts 116°
2026-05-05 19:22 43.77476 15.47728 35061 ft 497 kts 116°
2026-05-05 19:23 43.74594 15.56429 35062 ft 497 kts 116°
2026-05-05 19:23 43.71702 15.65116 35060 ft 497 kts 116°
2026-05-05 19:24 43.68801 15.73793 35061 ft 497 kts 116°
2026-05-05 19:24 43.65902 15.82461 35062 ft 497 kts 116°
2026-05-05 19:25 43.63002 15.91126 35062 ft 497 kts 116°
2026-05-05 19:25 43.60091 15.99771 35063 ft 497 kts 116°
2026-05-05 19:26 43.57169 16.08409 35090 ft 497 kts 116°
2026-05-05 19:26 43.54237 16.17042 35100 ft 497 kts 116°
2026-05-05 19:27 43.51308 16.25653 35099 ft 497 kts 116°
2026-05-05 19:27 43.48345 16.34256 35099 ft 496 kts 117°
2026-05-05 19:28 43.45223 16.42721 35096 ft 496 kts 118°
2026-05-05 19:28 43.42045 16.51119 35084 ft 495 kts 118°
2026-05-05 19:29 43.38891 16.59538 35063 ft 495 kts 118°
2026-05-05 19:29 43.35757 16.67962 35071 ft 495 kts 118°
2026-05-05 19:30 43.32621 16.76387 35087 ft 495 kts 118°
2026-05-05 19:30 43.29478 16.84799 35095 ft 495 kts 118°
2026-05-05 19:31 43.26344 16.93132 35089 ft 494 kts 118°
2026-05-05 19:31 43.23166 17.01550 35091 ft 494 kts 118°
2026-05-05 19:32 43.20026 17.09851 35101 ft 494 kts 118°
2026-05-05 19:32 43.16862 17.18186 35099 ft 493 kts 118°
2026-05-05 19:33 43.13696 17.26508 35102 ft 492 kts 118°
2026-05-05 19:33 43.10531 17.34816 35102 ft 492 kts 118°
2026-05-05 19:34 43.07363 17.43119 35095 ft 492 kts 118°
2026-05-05 19:35 43.02592 17.55541 35102 ft 492 kts 118°
2026-05-05 19:35 42.99399 17.63798 35100 ft 492 kts 118°
2026-05-05 19:36 42.96210 17.72052 35095 ft 491 kts 118°
2026-05-05 19:36 42.93537 17.78961 35109 ft 491 kts 118°
2026-05-05 19:37 42.90365 17.87120 35110 ft 490 kts 118°
2026-05-05 19:37 42.87176 17.95311 35107 ft 488 kts 118°
2026-05-05 19:38 42.83983 18.03473 35108 ft 488 kts 119°
2026-05-05 19:38 42.82228 18.07414 34728 ft 488 kts 127°
2026-05-05 19:38 42.80053 18.10941 33672 ft 481 kts 139°
2026-05-05 19:38 42.77543 18.13839 32736 ft 468 kts 148°
2026-05-05 19:39 42.74819 18.16158 31749 ft 456 kts 156°
2026-05-05 19:39 42.71962 18.17950 30980 ft 451 kts 161°
2026-05-05 19:39 42.69123 18.19623 30858 ft 438 kts 160°
2026-05-05 19:39 42.66371 18.21267 30751 ft 426 kts 160°
2026-05-05 19:40 42.63692 18.22869 30665 ft 415 kts 160°
2026-05-05 19:40 42.58443 18.26072 30238 ft 418 kts 154°
2026-05-05 19:40 42.56009 18.28259 29749 ft 421 kts 143°
2026-05-05 19:41 42.53888 18.30985 29303 ft 421 kts 133°
2026-05-05 19:41 42.52099 18.34125 28879 ft 420 kts 126°
2026-05-05 19:41 42.50435 18.37375 28447 ft 418 kts 126°
2026-05-05 19:41 42.48772 18.40597 28018 ft 417 kts 126°
2026-05-05 19:42 42.47109 18.43805 27604 ft 414 kts 126°
2026-05-05 19:42 42.45456 18.46987 27192 ft 412 kts 126°
2026-05-05 19:42 42.43807 18.50157 26814 ft 410 kts 126°
2026-05-05 19:42 42.42168 18.53303 26426 ft 407 kts 126°
2026-05-05 19:43 42.40542 18.56421 26040 ft 405 kts 126°
2026-05-05 19:43 42.38922 18.59522 25645 ft 402 kts 127°
2026-05-05 19:43 42.37314 18.62605 25270 ft 400 kts 126°
2026-05-05 19:43 42.35719 18.65663 24880 ft 397 kts 127°
2026-05-05 19:44 42.34131 18.68710 24487 ft 395 kts 127°
2026-05-05 19:44 42.32555 18.71730 24103 ft 392 kts 127°
2026-05-05 19:44 42.30984 18.74738 23683 ft 391 kts 127°
2026-05-05 19:44 42.29245 18.77534 23199 ft 386 kts 138°
2026-05-05 19:45 42.27215 18.79780 22799 ft 379 kts 149°
2026-05-05 19:45 42.24935 18.81489 22392 ft 372 kts 160°
2026-05-05 19:45 42.22528 18.82686 21999 ft 366 kts 164°
2026-05-05 19:45 42.20129 18.83804 21591 ft 363 kts 164°
2026-05-05 19:46 42.17718 18.84933 21190 ft 360 kts 164°
2026-05-05 19:46 42.15359 18.86039 20790 ft 358 kts 164°
2026-05-05 19:46 42.13019 18.87132 20384 ft 355 kts 163°
2026-05-05 19:46 42.10758 18.88465 19990 ft 355 kts 153°
2026-05-05 19:47 42.08743 18.90311 19575 ft 356 kts 142°
2026-05-05 19:47 42.06945 18.92609 19172 ft 356 kts 137°
2026-05-05 19:47 42.05193 18.94942 18763 ft 354 kts 137°
2026-05-05 19:47 42.03437 18.97268 18324 ft 353 kts 137°
2026-05-05 19:48 42.01690 18.99573 17903 ft 351 kts 137°
2026-05-05 19:48 41.99949 19.01869 17488 ft 349 kts 137°
2026-05-05 19:48 41.98227 19.04144 17084 ft 346 kts 137°
2026-05-05 19:48 41.96513 19.06402 16674 ft 344 kts 137°
2026-05-05 19:49 41.94809 19.08643 16276 ft 342 kts 137°
2026-05-05 19:49 41.93113 19.10871 15863 ft 340 kts 137°
2026-05-05 19:49 41.91423 19.13089 15457 ft 339 kts 137°
2026-05-05 19:49 41.89743 19.15297 15051 ft 337 kts 137°
2026-05-05 19:50 41.88071 19.17492 14657 ft 336 kts 137°
2026-05-05 19:50 41.86406 19.19682 14261 ft 334 kts 137°
2026-05-05 19:50 41.84752 19.21866 13848 ft 333 kts 137°
2026-05-05 19:50 41.83108 19.24039 13433 ft 331 kts 137°
2026-05-05 19:51 41.81472 19.26198 13030 ft 328 kts 137°
2026-05-05 19:51 41.79852 19.28333 12647 ft 326 kts 137°
2026-05-05 19:51 41.78243 19.30450 12261 ft 323 kts 137°
2026-05-05 19:51 41.76724 19.32662 11744 ft 325 kts 131°
2026-05-05 19:52 41.75244 19.35025 10931 ft 337 kts 132°
2026-05-05 19:52 41.73729 19.37448 10405 ft 337 kts 132°
2026-05-05 19:52 41.72259 19.39805 10252 ft 318 kts 132°
2026-05-05 19:52 41.70886 19.42012 9794 ft 302 kts 132°
2026-05-05 19:53 41.69555 19.44136 9080 ft 295 kts 133°
2026-05-05 19:53 41.68266 19.46187 8356 ft 290 kts 132°
2026-05-05 19:53 41.66974 19.48241 7598 ft 287 kts 132°
2026-05-05 19:53 41.65694 19.50272 6925 ft 283 kts 131°
2026-05-05 19:54 41.64609 19.52426 6262 ft 278 kts 115°
2026-05-05 19:54 41.64054 19.54855 6043 ft 276 kts 99°
2026-05-05 19:54 41.64015 19.57408 5987 ft 267 kts 84°
2026-05-05 19:54 41.64204 19.59762 5767 ft 248 kts 85°
2026-05-05 19:55 41.64377 19.62052 5138 ft 247 kts 85°
2026-05-05 19:55 41.64543 19.64353 4755 ft 248 kts 85°
2026-05-05 19:55 41.64487 19.66628 4363 ft 245 kts 111°
2026-05-05 19:55 41.63568 19.68453 4142 ft 236 kts 144°
2026-05-05 19:56 41.62094 19.69314 3892 ft 232 kts 173°
2026-05-05 19:56 41.60488 19.69541 3606 ft 231 kts 175°
2026-05-05 19:56 41.58931 19.69733 3312 ft 218 kts 175°
2026-05-05 19:56 41.57444 19.69927 3025 ft 213 kts 175°
2026-05-05 19:57 41.55992 19.70121 2746 ft 207 kts 175°
2026-05-05 19:57 41.54574 19.70310 2490 ft 201 kts 174°
2026-05-05 19:57 41.53224 19.70491 2218 ft 189 kts 174°
2026-05-05 19:57 41.51952 19.70661 1960 ft 177 kts 174°
2026-05-05 19:58 41.50794 19.70815 1757 ft 157 kts 174°
2026-05-05 19:58 41.49764 19.70953 1534 ft 144 kts 175°
2026-05-05 19:58 41.48779 19.71084 1346 ft 140 kts 175°
2026-05-05 19:58 41.47812 19.71213 1161 ft 139 kts 175°
2026-05-05 19:59 41.46851 19.71340 960 ft 140 kts 174°
2026-05-05 19:59 41.45897 19.71460 742 ft 140 kts 174°
2026-05-05 19:59 41.44930 19.71589 565 ft 140 kts 174°
2026-05-05 19:59 41.43961 19.71722 381 ft 140 kts 174°
2026-05-05 20:00 41.42991 19.71854 214 ft 140 kts 174°
2026-05-05 20:00 41.42039 19.71979 122 ft 129 kts 174°
2026-05-05 20:00 41.41292 19.72080 126 ft 84 kts 174°
2026-05-05 20:00 41.40879 19.72135 133 ft 38 kts 174°
2026-05-05 20:01 41.40722 19.72153 134 ft 13 kts 191°
2026-05-05 20:01 41.40673 19.72052 133 ft 15 kts 255°
2026-05-05 20:01 41.40647 19.71909 132 ft 16 kts 257°
2026-05-05 20:01 41.40658 19.71781 132 ft 14 kts 327°
2026-05-05 20:02 41.40758 19.71760 132 ft 15 kts 354°
2026-05-05 20:02 41.40868 19.71735 131 ft 17 kts 348°
2026-05-05 20:02 41.40990 19.71710 129 ft 19 kts 354°
2026-05-05 20:02 41.41126 19.71692 126 ft 20 kts 354°
2026-05-05 20:03 41.41274 19.71672 128 ft 22 kts 354°
2026-05-05 20:03 41.41434 19.71650 125 ft 24 kts 354°
2026-05-05 20:03 41.41606 19.71627 123 ft 26 kts 354°
2026-05-05 20:03 41.41787 19.71603 123 ft 24 kts 354°
2026-05-05 20:04 41.41913 19.71586 122 ft 15 kts 354°
2026-05-05 20:04 41.41973 19.71578 122 ft 7 kts 354°
2026-05-05 20:04 41.41990 19.71552 123 ft 4 kts 268°
2026-05-05 20:04 41.41988 19.71520 121 ft 2 kts 265°
2026-05-05 20:05 41.41988 19.71514 119 ft 0 kts 265°